Location: Bratsk-Energetik
(56.3300°N, 101.7600°E)
Time: 15:17:59
(UTC+08:00)

ISS - Visible Passes

Search period start: 20 March 2019 00:00
Search period end: 30 March 2019 00:00
Orbit: 406 x 411 km, 51.6° (Epoch: 20 March)

Date Brightness Start Highest point End Pass type
(mag) Time Alt. Az. Time Alt. Az. Time Alt. Az.
23 Mar -1.8 21:12:53 10° SSW 21:14:08 15° S 21:14:08 15° S visible
24 Mar -1.6 20:22:54 10° S 20:24:17 12° SE 20:25:39 10° ESE visible
24 Mar -1.8 21:57:12 10° SW 21:58:25 18° SSW 21:58:25 18° SSW visible
25 Mar -2.5 21:06:30 10° SW 21:09:13 24° SSE 21:09:47 23° SE visible
25 Mar -1.0 22:42:13 10° WSW 22:42:32 12° WSW 22:42:32 12° WSW visible
26 Mar -2.1 20:15:56 10° SSW 20:18:20 19° SSE 20:20:45 10° ESE visible
26 Mar -2.7 21:51:17 10° WSW 21:53:44 32° SSW 21:53:44 32° SSW visible
27 Mar -2.8 21:00:25 10° SW 21:03:23 31° SSE 21:04:51 21° ESE visible
27 Mar -1.5 22:36:30 10° WSW 22:37:35 18° WSW 22:37:35 18° WSW visible
28 Mar -3.1 21:45:29 10° WSW 21:48:33 36° S 21:48:37 36° S visible
29 Mar -3.0 20:54:30 10° WSW 20:57:34 36° S 20:59:35 18° ESE visible
29 Mar -1.8 22:30:49 10° WSW 22:32:19 20° SW 22:32:19 20° SW visible
